Back to catalog

STARLINK-3501

AliveCommunicationsVLEO
NORAD 51748·PAYLOAD·🇺🇸 United States

Launched Feb 21, 2022 from Cape Canaveral Space Force Station

Loading…

Next Passes (next 24 hours)

TLE

FreshSource: CelesTrak SupGP

Epoch: Sep 14, 2026, 14:42 UTC

1 51748C 22016AL  26257.61298611  .00033091  00000+0  97789-3 0  2577
2 51748  53.1579 166.8876 0001242  92.3437 288.8736 15.34367960    13

Track STARLINK-3501 in real time with AllMySat

Download on the App Store